This is the latest recevied weather packets stored in our database for station/object VE3EP-1. If no packets are shown the sender has not sent any weather packets the latest 10 day(s).
| Time | Temp. | Humidity | Pressure | Rain* | Wind** | Luminosity | Snow |
|---|---|---|---|---|---|---|---|
| 1788493737 | 18.89° C | 81% | 1015.2 hPa | 0 mm | - | - | - |
| 1788493137 | 18.89° C | 82% | 1015.1 hPa | 0 mm | - | - | - |
| 1788492538 | 19.44° C | 79% | 1015.1 hPa | 0 mm | - | - | - |
| 1788491337 | 19.44° C | 80% | 1015.2 hPa | 0 mm | - | - | - |
| 1788489537 | 20° C | 79% | 1015 hPa | 0 mm | - | - | - |
| 1788488937 | 20.56° C | 77% | 1015.1 hPa | 0 mm | - | - | - |
| 1788488337 | 20.56° C | 77% | 1015.2 hPa | 0 mm | - | - | - |
| 1788487748 | 20.56° C | 76% | 1015.1 hPa | 0 mm | - | - | - |
| 1788487137 | 21.11° C | 75% | 1015 hPa | 0 mm | - | - | - |
| 1788485942 | 21.67° C | 73% | 1015.4 hPa | 0 mm | - | - | - |
| 1788485337 | 21.67° C | 72% | 1015.1 hPa | 0 mm | - | - | - |
| 1788484738 | 22.22° C | 72% | 1015 hPa | 0 mm | - | - | - |
| 1788483537 | 22.22° C | 71% | 1014.9 hPa | 0 mm | - | - | - |
| 1788482937 | 22.22° C | 73% | 1015.1 hPa | 0 mm | - | - | - |
| 1788481738 | 22.78° C | 76% | 1015 hPa | 0 mm | - | - | - |
| 1788481137 | 22.78° C | 77% | 1015 hPa | 0 mm | - | - | - |
| 1788480537 | 22.78° C | 75% | 1014.8 hPa | 0 mm | - | - | - |
| 1788479937 | 22.78° C | 79% | 1014.8 hPa | 0 mm | - | - | - |
| 1788478737 | 22.78° C | 84% | 1014.8 hPa | 0 mm | - | - | - |
| 1788478137 | 22.78° C | 80% | 1014.8 hPa | 0 mm | - | - | - |
| 1788477537 | 22.78° C | 80% | 1014.8 hPa | 0 mm | - | - | - |
| 1788476938 | 23.33° C | 79% | 1014.5 hPa | 0 mm | - | - | - |
| 1788476338 | 23.33° C | 78% | 1014.5 hPa | 0 mm | - | - | - |
| 1788475737 | 23.33° C | 77% | 1014.3 hPa | 0 mm | - | - | - |
| 1788475138 | 23.33° C | 76% | 1014.3 hPa | 0 mm | - | - | - |
* Rain latest hour (hover to see other rain measurements)
** Current wind speed in m/s (hover to see current wind gust speed)